This is the latest recevied weather packets stored in our database for station/object DK0KTL-4. If no packets are shown the sender has not sent any weather packets the latest 10 day(s).
| Time | Temp. | Humidity | Pressure | Rain* | Wind** | Luminosity | Snow |
|---|---|---|---|---|---|---|---|
| 1777920593 | 17.78° C | 69% | 1010.6 hPa | 0 mm | - | - | - |
| 1777919692 | 17.78° C | 68% | 1010.4 hPa | 0 mm | - | - | - |
| 1777918791 | 18.33° C | 68% | 1010.3 hPa | 0 mm | - | - | - |
| 1777918191 | 18.33° C | 67% | 1010.2 hPa | 0 mm | - | - | - |
| 1777917590 | 18.89° C | 65% | 1010.3 hPa | 0 mm | - | - | - |
| 1777916990 | 18.89° C | 64% | 1010.3 hPa | 0 mm | - | - | - |
| 1777916390 | 19.44° C | 63% | 1010.3 hPa | 0 mm | - | - | - |
| 1777915789 | 19.44° C | 62% | 1010.3 hPa | 0 mm | - | - | - |
| 1777915188 | 20° C | 61% | 1010.3 hPa | 0 mm | - | - | - |
| 1777914588 | 20° C | 60% | 1010.4 hPa | 0 mm | - | - | - |
| 1777913987 | 20.56° C | 59% | 1010.3 hPa | 0 mm | - | - | - |
| 1777913387 | 20.56° C | 57% | 1010.3 hPa | 0 mm | - | - | - |
| 1777913086 | 20.56° C | 56% | 1010.4 hPa | 0 mm | - | - | - |
| 1777912786 | 21.11° C | 56% | 1010.4 hPa | 0 mm | - | - | - |
| 1777912486 | 21.11° C | 55% | 1010.3 hPa | 0 mm | - | - | - |
| 1777912185 | 21.11° C | 54% | 1010.3 hPa | 0 mm | - | - | - |
| 1777911885 | 21.11° C | 54% | 1010.4 hPa | 0 mm | - | - | - |
| 1777911585 | 21.67° C | 53% | 1010.4 hPa | 0 mm | - | - | - |
| 1777909783 | 22.78° C | 50% | 1010.6 hPa | 0 mm | - | - | - |
| 1777909483 | 22.78° C | 50% | 1010.6 hPa | 0 mm | - | - | - |
| 1777909182 | 23.33° C | 48% | 1010.6 hPa | 0 mm | - | - | - |
| 1777908882 | 23.33° C | 49% | 1010.7 hPa | 0 mm | - | - | - |
| 1777908582 | 23.33° C | 48% | 1010.6 hPa | 0 mm | - | - | - |
| 1777908282 | 23.89° C | 47% | 1010.7 hPa | 0 mm | - | - | - |
| 1777907080 | 25° C | 46% | 1010.8 hPa | 0 mm | - | - | - |
* Rain latest hour (hover to see other rain measurements)
** Current wind speed in m/s (hover to see current wind gust speed)